{"data":{"norad_id":44781,"intl_designator":"2019-076C","name":"NINGXIA-1 3","alt_names":[],"object_type":"PAYLOAD","status":"ACTIVE","operator":null,"country":"PRC","launch_date":"2019-11-13","launch_site_code":"TAISC","launch_vehicle":null,"mission":null,"orbit_class":"UNKNOWN","rcs_meters":null,"size_class":null,"mass_kg":null,"dimensions":null,"purposes":[],"wikipedia_slug":null,"has_3d_model":false,"image_url":null,"decayed_at":null,"tle_current":{"epoch":"2026-05-25T04:55:04.365696Z","epoch_age_seconds":60854,"freshness":"FRESH","line1":"1 44781U 19076C   26145.20491164 -.00000092  00000+0  24795-4 0  9994","line2":"2 44781  45.0002 281.1024 0009370  35.8809 324.2652 14.02049134334638","mean_motion":14.02049134,"eccentricity":0.000937,"inclination_deg":45.0002,"raan_deg":281.1024,"arg_perigee_deg":35.8809,"mean_anomaly_deg":324.2652,"bstar":2.4795e-5,"rev_number":33463,"period_min":102.70681426775,"perigee_km":879.90083248771,"apogee_km":893.51515200318,"semimajor_km":7264.8449922454,"source":"CELESTRAK","updated_at":"2026-05-25T13:37:56.011174Z"}}}